Location: Nairn
(57.5833°N, 3.8667°W)
Time: 03:13:51
(UTC+00:00)

Explorer 7 - Pass Details

Date: 02 December 2020
Orbit: 484 x 678 km, 50.3° (Epoch: 17 January)

Event Time Altitude Azimuth Distance (km) Brightness Sun altitude
Exits shadow 06:32:17 12° 234° (SW) 1,732 9.0 -14.9°
Maximum altitude 06:33:37 13° 214° (SW) 1,623 9.0 -14.8°
Drops below altitude 10° 06:35:31 10° 186° (S) 1,786 9.6 -14.5°
Sets 06:38:41 0° 158° (SSE) 2,629 10.9 -14.1°
